Skagway, AK

9:44 PM AKDT on May 27, 2018 (GMT -0800)
Skagway

Weather History for PAGY - November, 2011

Change the Weather History Date:

Tuesday, November 29, 2011

  Actual Average Record
Temperature  
Mean Temperature 36 °F -  
Max Temperature 39 °F 34 °F 47 °F (1969)
Min Temperature 32 °F 27 °F 9 °F (1985)
Degree Days  
Heating Degree Days 30    
Moisture  
Dew Point 30 °F    
Average Humidity 81    
Maximum Humidity 92    
Minimum Humidity 73    
Precipitation  
Precipitation 0.00 in - - ()
Sea Level Pressure  
Sea Level Pressure 30.14 in    
Wind  
Wind Speed 14 mph (South)    
Max Wind Speed 25 mph    
Max Gust Speed 33 mph    
Visibility 10 miles    
Events      
Averages and records for this station are not official NWS values.
T = Trace of Precipitation, MM = Missing Value Source: NWS Daily Summary

Daily Weather History Graph

Daily Weather History Graph

Search for Another Location

Airport or City:

Astronomy

Nov. 29, 2011 Rise Set
Actual Time 8:27 AM AKST 3:10 PM AKST
Civil Twilight 7:35 AM AKST 4:03 PM AKST
Nautical Twilight 6:42 AM AKST 4:56 PM AKST
Astronomical Twilight 5:52 AM AKST 5:46 PM AKST
Moon 11:47 AM AKST (11/29) 8:49 PM AKST (11/29)
Length of Visible Light 8h 27m
Length of Day
6h 43m
Waxing Crescent, 25% of the Moon is Illuminated
Nov 29
Waxing Crescent
Dec 2
First Quarter
Dec 10
Full
Dec 17
Last Quarter
Dec 24
New

Hourly Weather History & Observations

Time (AKST) Temp. Windchill Dew Point Humidity Pressure Visibility Wind Dir Wind Speed Gust Speed Precip Events Conditions
12:53 AM 37.9 °F 27.9 °F 30.9 °F 76% 29.81 in 10.0 mi SSW 19.6 mph 25.3 mph N/A   Scattered Clouds
1:53 AM 39.0 °F 29.6 °F 30.9 °F 73% 29.82 in 10.0 mi SSW 18.4 mph 27.6 mph N/A   Overcast
3:53 AM 39.0 °F 29.9 °F 30.9 °F 73% 29.86 in 10.0 mi SSW 17.3 mph 31.1 mph N/A   Overcast
4:53 AM 39.0 °F 28.0 °F 30.9 °F 73% 29.88 in 10.0 mi SSW 25.3 mph - N/A   Overcast
5:53 AM 39.0 °F 28.0 °F 32.0 °F 76% 29.91 in 10.0 mi SW 25.3 mph 33.4 mph N/A   Overcast
6:53 AM 39.0 °F 29.3 °F 32.0 °F 76% 29.93 in 10.0 mi SSW 19.6 mph 27.6 mph 0.00 in   Overcast
7:53 AM 39.0 °F 31.0 °F 32.0 °F 76% 29.96 in 10.0 mi SSW 13.8 mph - N/A   Overcast
8:53 AM 37.9 °F 30.5 °F 30.9 °F 76% 29.98 in 10.0 mi SSW 11.5 mph - N/A   Mostly Cloudy
9:53 AM 37.9 °F 30.0 °F 30.0 °F 73% 30.00 in 10.0 mi SSW 12.7 mph - N/A   Scattered Clouds
10:53 AM 37.9 °F 30.9 °F 30.9 °F 76% 30.03 in 10.0 mi SSW 10.4 mph - N/A   Overcast
11:53 AM 37.9 °F 30.5 °F 32.0 °F 79% 30.06 in 10.0 mi SSW 11.5 mph - N/A   Overcast
12:53 PM 37.0 °F 28.9 °F 32.0 °F 82% 30.07 in 10.0 mi SSW 12.7 mph - N/A   Scattered Clouds
1:53 PM 37.9 °F 28.5 °F 30.9 °F 76% 30.10 in 10.0 mi SSW 17.3 mph - N/A   Partly Cloudy
2:53 PM 37.0 °F 28.5 °F 30.9 °F 79% 30.14 in 10.0 mi South 13.8 mph 20.7 mph N/A   Clear
3:53 PM 35.1 °F 30.1 °F 28.9 °F 78% 30.17 in 10.0 mi NE 5.8 mph - N/A   Overcast
4:53 PM 37.0 °F 32.4 °F 30.9 °F 79% 30.21 in 10.0 mi SSW 5.8 mph - N/A   Mostly Cloudy
5:53 PM 33.1 °F 30.0 °F 28.9 °F 85% 30.24 in 10.0 mi NNE 3.5 mph - N/A   Mostly Cloudy
6:17 PM 33.8 °F 30.8 °F 28.4 °F 81% 30.25 in 10.0 mi NNE 3.5 mph - N/A   Overcast
6:53 PM 33.1 °F 28.7 °F 30.0 °F 89% 30.27 in 10.0 mi NNE 4.6 mph - N/A   Overcast
7:04 PM 33.8 °F 30.8 °F 28.4 °F 81% 30.28 in 10.0 mi NE 3.5 mph - N/A   Overcast
7:53 PM 32.0 °F 28.7 °F 30.0 °F 92% 30.30 in 10.0 mi East 3.5 mph - N/A   Overcast
8:49 PM 32.0 °F 28.7 °F 28.4 °F 87% 30.34 in 10.0 mi ENE 3.5 mph - N/A   Mostly Cloudy
8:53 PM 33.1 °F 27.7 °F 28.9 °F 85% 30.34 in 10.0 mi NNE 5.8 mph - N/A   Mostly Cloudy
9:53 PM 33.1 °F 27.7 °F 30.0 °F 89% 30.36 in 10.0 mi NNE 5.8 mph - N/A   Overcast
10:18 PM 33.8 °F 29.6 °F 30.2 °F 87% 30.36 in 10.0 mi Variable 4.6 mph - N/A   Overcast
10:46 PM 33.8 °F 30.8 °F 30.2 °F 87% 30.37 in 10.0 mi NNE 3.5 mph - N/A   Overcast
10:53 PM 33.1 °F 28.7 °F 30.0 °F 89% 30.38 in 10.0 mi NE 4.6 mph - N/A   Overcast
11:53 PM 36.0 °F 26.3 °F 32.0 °F 86% 30.37 in 7.0 mi SSW 16.1 mph - 0.00 in   Mostly Cloudy